When you browse on this site, cookies collect data to enhance your experience and personalize the content and advertising you see.
Visit our Privacy Policy to learn more. By continuing to use the site, you agree to this use of cookies and data.
  • In Deutschland
  • Länderverzeichnis
  • Für 7 Tage
  • Wassertemperatur
  • Satellitenkarten
  • Wetterkarte
  • Widgets
  • user-avatar
    Anmelden

    Stündliche Wetter La Massana

    Heute, 23 Mai, Donnerstag

    Zeit Temperatur Niederschläge Wind Luftdruck Luftfeuchtigkeit
    00:00 +5°C° 0 mm 1 m/S 609 mmHg 82%
    01:00 +4°C° 0 mm 1 m/S 609 mmHg 80%
    02:00 +4°C° 0 mm 1 m/S 609 mmHg 79%
    03:00 +4°C° 0 mm 1 m/S 609 mmHg 77%
    04:00 +5°C° 0 mm 1 m/S 610 mmHg 75%
    05:00 +6°C° 0 mm 1 m/S 610 mmHg 72%
    06:00 +8°C° 0 mm 1 m/S 611 mmHg 70%
    07:00 +10°C° 0 mm 1 m/S 612 mmHg 60%
    08:00 +13°C° 0 mm 1 m/S 613 mmHg 50%
    09:00 +15°C° 0 mm 1 m/S 614 mmHg 41%
    10:00 +16°C° 0 mm 1 m/S 614 mmHg 38%
    11:00 +18°C° 0 mm 1 m/S 615 mmHg 36%
    12:00 +19°C° 0 mm 1 m/S 615 mmHg 34%
    13:00 +16°C° 0.2 mm 1 m/S 614 mmHg 43%
    14:00 +15°C° 0.2 mm 1 m/S 613 mmHg 53%
    15:00 +13°C° 0.2 mm 1 m/S 612 mmHg 62%
    16:00 +12°C° 0.8 mm 1 m/S 611 mmHg 71%
    17:00 +10°C° 0.8 mm 1 m/S 611 mmHg 79%
    18:00 +9°C° 0.8 mm 1 m/S 610 mmHg 88%
    19:00 +9°C° 0.7 mm 1 m/S 610 mmHg 89%
    20:00 +8°C° 0.7 mm 1 m/S 610 mmHg 90%
    21:00 +8°C° 0.7 mm 1 m/S 610 mmHg 91%
    22:00 +8°C° 1.9 mm 1 m/S 610 mmHg 93%
    23:00 +6°C° 1.9 mm 0 m/S 610 mmHg 95%

    Morgen, 24 Mai, Freitag

    Zeit Temperatur Niederschläge Wind Luftdruck Luftfeuchtigkeit
    00:00 +6°C° 1.9 mm 0 m/S 610 mmHg 96%
    01:00 +6°C° 3.2 mm 0 m/S 609 mmHg 96%
    02:00 +7°C° 3.2 mm 1 m/S 609 mmHg 96%
    03:00 +7°C° 3.2 mm 1 m/S 609 mmHg 96%
    04:00 +6°C° 2.2 mm 1 m/S 609 mmHg 96%
    05:00 +6°C° 2.2 mm 1 m/S 609 mmHg 95%
    06:00 +6°C° 2.2 mm 1 m/S 609 mmHg 95%
    07:00 +6°C° 1.7 mm 1 m/S 609 mmHg 95%
    08:00 +6°C° 1.7 mm 1 m/S 609 mmHg 95%
    09:00 +6°C° 1.7 mm 1 m/S 609 mmHg 95%
    10:00 +5°C° 1.1 mm 2 m/S 609 mmHg 94%
    11:00 +5°C° 1.1 mm 2 m/S 609 mmHg 93%
    12:00 +5°C° 1.1 mm 2 m/S 609 mmHg 93%
    13:00 +5°C° 0.7 mm 2 m/S 609 mmHg 91%
    14:00 +6°C° 0.7 mm 2 m/S 608 mmHg 90%
    15:00 +6°C° 0.7 mm 2 m/S 608 mmHg 89%
    16:00 +6°C° 0.6 mm 2 m/S 608 mmHg 90%
    17:00 +5°C° 0.6 mm 2 m/S 608 mmHg 91%
    18:00 +5°C° 0.6 mm 2 m/S 607 mmHg 92%
    19:00 +5°C° 1 mm 2 m/S 608 mmHg 93%
    20:00 +4°C° 1 mm 2 m/S 608 mmHg 94%
    21:00 +4°C° 1 mm 2 m/S 608 mmHg 96%
    22:00 +4°C° 1.6 mm 2 m/S 608 mmHg 96%
    23:00 +4°C° 1.6 mm 2 m/S 608 mmHg 96%

    übermorgen, 25 Mai, Samstag

    Zeit Temperatur Niederschläge Wind Luftdruck Luftfeuchtigkeit
    00:00 +4°C° 1.6 mm 2 m/S 608 mmHg 96%
    01:00 +4°C° 1.9 mm 2 m/S 607 mmHg 96%
    02:00 +4°C° 1.9 mm 2 m/S 607 mmHg 96%
    03:00 +4°C° 1.9 mm 2 m/S 607 mmHg 96%
    04:00 +4°C° 1.3 mm 2 m/S 607 mmHg 96%
    05:00 +4°C° 1.3 mm 2 m/S 607 mmHg 96%
    06:00 +3°C° 1.3 mm 3 m/S 608 mmHg 96%
    07:00 +3°C° 1 mm 3 m/S 608 mmHg 95%
    08:00 +4°C° 1 mm 3 m/S 608 mmHg 95%
    09:00 +4°C° 1 mm 3 m/S 609 mmHg 94%
    10:00 +4°C° 0.6 mm 3 m/S 609 mmHg 92%
    11:00 +5°C° 0.6 mm 3 m/S 609 mmHg 89%
    12:00 +5°C° 0.6 mm 3 m/S 609 mmHg 87%
    13:00 +7°C° 0.4 mm 3 m/S 610 mmHg 86%
    14:00 +7°C° 0.4 mm 3 m/S 610 mmHg 85%
    15:00 +7°C° 0.4 mm 3 m/S 610 mmHg 84%
    16:00 +7°C° 0.1 mm 3 m/S 609 mmHg 85%
    17:00 +7°C° 0.1 mm 3 m/S 609 mmHg 87%
    18:00 +5°C° 0.1 mm 3 m/S 609 mmHg 88%
    19:00 +5°C° 0.2 mm 3 m/S 610 mmHg 90%
    20:00 +4°C° 0.2 mm 3 m/S 610 mmHg 91%
    21:00 +4°C° 0.2 mm 3 m/S 610 mmHg 93%
    22:00 +4°C° 0.1 mm 3 m/S 610 mmHg 93%
    23:00 +4°C° 0.1 mm 3 m/S 610 mmHg 93%

    26 Mai, Sonntag

    Zeit Temperatur Niederschläge Wind Luftdruck Luftfeuchtigkeit
    00:00 +3°C° 0.1 mm 3 m/S 610 mmHg 93%
    01:00 +4°C° 0.1 mm 3 m/S 610 mmHg 93%
    02:00 +4°C° 0.1 mm 3 m/S 610 mmHg 92%
    03:00 +4°C° 0.1 mm 3 m/S 609 mmHg 91%
    04:00 +4°C° 0 mm 3 m/S 610 mmHg 91%
    05:00 +4°C° 0 mm 3 m/S 610 mmHg 90%
    06:00 +4°C° 0 mm 3 m/S 610 mmHg 90%
    07:00 +5°C° 0 mm 3 m/S 610 mmHg 85%
    08:00 +7°C° 0 mm 3 m/S 611 mmHg 80%
    09:00 +7°C° 0 mm 4 m/S 611 mmHg 76%
    10:00 +9°C° 0 mm 3 m/S 612 mmHg 72%
    11:00 +10°C° 0 mm 3 m/S 612 mmHg 67%
    12:00 +11°C° 0 mm 3 m/S 612 mmHg 63%
    13:00 +11°C° 0 mm 3 m/S 612 mmHg 60%
    14:00 +12°C° 0 mm 3 m/S 612 mmHg 58%
    15:00 +12°C° 0 mm 3 m/S 612 mmHg 56%
    16:00 +11°C° 0 mm 3 m/S 611 mmHg 61%
    17:00 +10°C° 0 mm 3 m/S 611 mmHg 67%
    18:00 +9°C° 0 mm 3 m/S 611 mmHg 73%
    19:00 +8°C° 0 mm 3 m/S 610 mmHg 78%
    20:00 +5°C° 0 mm 3 m/S 610 mmHg 84%
    21:00 +5°C° 0 mm 2 m/S 610 mmHg 90%
    22:00 +5°C° 0 mm 2 m/S 610 mmHg 90%
    23:00 +5°C° 0 mm 2 m/S 610 mmHg 90%

    27 Mai, Montag

    Zeit Temperatur Niederschläge Wind Luftdruck Luftfeuchtigkeit
    00:00 +5°C° 0 mm 2 m/S 610 mmHg 89%
    01:00 +5°C° 0 mm 2 m/S 609 mmHg 90%
    02:00 +4°C° 0 mm 2 m/S 609 mmHg 91%
    03:00 +4°C° 0 mm 2 m/S 608 mmHg 92%
    04:00 +4°C° 0 mm 2 m/S 608 mmHg 89%
    05:00 +5°C° 0 mm 2 m/S 609 mmHg 86%
    06:00 +5°C° 0 mm 2 m/S 609 mmHg 83%
    07:00 +7°C° 0 mm 2 m/S 610 mmHg 73%
    08:00 +9°C° 0 mm 2 m/S 610 mmHg 63%
    09:00 +12°C° 0 mm 2 m/S 611 mmHg 54%
    10:00 +13°C° 0 mm 2 m/S 612 mmHg 51%
    11:00 +14°C° 0 mm 2 m/S 612 mmHg 49%
    12:00 +15°C° 0 mm 2 m/S 612 mmHg 47%
    13:00 +15°C° 0 mm 2 m/S 611 mmHg 50%
    14:00 +15°C° 0 mm 2 m/S 611 mmHg 53%
    15:00 +15°C° 0 mm 2 m/S 611 mmHg 55%
    16:00 +13°C° 0.1 mm 2 m/S 610 mmHg 66%
    17:00 +10°C° 0.1 mm 2 m/S 609 mmHg 76%
    18:00 +8°C° 0.1 mm 2 m/S 609 mmHg 86%
    19:00 +8°C° 0.1 mm 2 m/S 609 mmHg 88%
    20:00 +7°C° 0.1 mm 2 m/S 609 mmHg 90%
    21:00 +6°C° 0.1 mm 2 m/S 609 mmHg 91%
    22:00 +6°C° 0 mm 2 m/S 608 mmHg 92%
    23:00 +5°C° 0 mm 2 m/S 608 mmHg 92%

    28 Mai, Dienstag

    Zeit Temperatur Niederschläge Wind Luftdruck Luftfeuchtigkeit
    00:00 +5°C° 0 mm 2 m/S 608 mmHg 92%
    01:00 +5°C° 0 mm 2 m/S 608 mmHg 92%
    02:00 +4°C° 0 mm 2 m/S 607 mmHg 92%
    03:00 +4°C° 0 mm 2 m/S 607 mmHg 91%
    04:00 +4°C° 0 mm 2 m/S 607 mmHg 88%
    05:00 +3°C° 0 mm 2 m/S 607 mmHg 85%
    06:00 +3°C° 0 mm 2 m/S 607 mmHg 82%
    07:00 +5°C° 0 mm 2 m/S 608 mmHg 71%
    08:00 +7°C° 0 mm 2 m/S 609 mmHg 60%
    09:00 +9°C° 0 mm 2 m/S 610 mmHg 49%
    10:00 +10°C° 0 mm 2 m/S 610 mmHg 46%
    11:00 +12°C° 0 mm 2 m/S 611 mmHg 44%
    12:00 +13°C° 0 mm 2 m/S 611 mmHg 41%
    13:00 +12°C° 0.3 mm 2 m/S 610 mmHg 54%
    14:00 +9°C° 0.3 mm 3 m/S 610 mmHg 66%
    15:00 +7°C° 0.3 mm 3 m/S 609 mmHg 78%
    16:00 +7°C° 0.3 mm 2 m/S 609 mmHg 80%
    17:00 +6°C° 0.3 mm 2 m/S 609 mmHg 83%
    18:00 +6°C° 0.3 mm 2 m/S 608 mmHg 85%
    19:00 +5°C° 0.1 mm 2 m/S 609 mmHg 87%
    20:00 +4°C° 0.1 mm 2 m/S 609 mmHg 89%
    21:00 +3°C° 0.1 mm 2 m/S 609 mmHg 91%
    22:00 +3°C° 0 mm 2 m/S 608 mmHg 91%
    23:00 +2°C° 0 mm 2 m/S 608 mmHg 91%
    Mehr zeigen